Regional Weather Roundup
Issued by NWS

Home | Current Version | Previous Version | Graphics & Text | Print | Product List | Glossary Off
Versions: 1 2 3 4 5 6 7 8 9 10 11 12 13 14 15 16 17 18 19 20 21 22 23 24 25 26 27 28 29 30 31 32 33 34 35 36 37 38 39 40 41 42 43 44 45 46 47 48 49 50

000
ASUS43 KMKX 281903
RWRWI

WISCONSIN REGIONAL WEATHER ROUNDUP
NATIONAL WEATHER SERVICE MILWAUKEE/SULLIVAN WI
200 PM CDT THU MAY 28 2015

NOTE: "FAIR" INDICATES FEW OR NO CLOUDS BELOW 12,000 FEET WITH NO
SIGNIFICANT WEATHER AND/OR OBSTRUCTIONS TO VISIBILITY.

WIZ001-002-006>008-014>016-023>028-282000-
NORTHWEST WISCONSIN

CITY           SKY/WX    TMP DP  RH WIND       PRES   REMARKS
SUPERIOR ARPT  CLOUDY    44  42  90 NE13G18   30.09F
ASHLAND        MOSUNNY   62  53  72 NE7       30.05F
HAYWARD        MOSUNNY   83  49  30 SW15G29   30.02F HX  81
SIREN          SUNNY     83  50  31 SW15G22   30.01F HX  82
CUMBERLAND     SUNNY     79  50  36 SW17      30.05F
RICE LAKE      SUNNY     83  48  28 SW15      30.06F HX  81
CHETEK         MOSUNNY   82  55  40 S13G18    30.05F HX  81
LADYSMITH      MOSUNNY   79  54  41 S12       30.08F
EAU CLAIRE     MOSUNNY   83  51  33 S15G21    30.05F HX  81
MENOMONIE      MOSUNNY   82  55  39 S12       30.05F HX  81
NEW RICHMOND   SUNNY     81  53  38 S17G24    30.04F HX  80
OSCEOLA        MOSUNNY   83  51  32 S17G23    30.04F HX  81
$$

WIZ003>005-009-010-017-018-282000-
NORTH CENTRAL WISCONSIN

CITY           SKY/WX    TMP DP  RH WIND       PRES   REMARKS
MANITOWISH WTR MOSUNNY   80  53  39 SW12G17   30.07F HX  80
ARBOR VITAE    MOSUNNY   82  54  36 SW14G26   30.08F HX  81
WOODRUFF       MOSUNNY   82  54  36 SW14G26   30.08F HX  81
RHINELANDER    MOSUNNY   78  55  44 SW12      30.10F
EAGLE RIVER    MOSUNNY   80  47  30 SW12G17   30.09F
LAND O LAKES   MOSUNNY   83  46  28 S8G18     30.09F HX  81
PHILLIPS       SUNNY     81  57  44 SW10G16   30.07F HX  81
TOMAHAWK       PTSUNNY   79  55  43 SW8       30.10F
MEDFORD        MOSUNNY   77  61  57 SW9       30.10F
MERRILL        SUNNY     81  58  45 SW9G16    30.11F HX  81
$$

WIZ029-030-035-036-043>047-282000-
CENTRAL WISCONSIN

CITY           SKY/WX    TMP DP  RH WIND       PRES   REMARKS
WAUSAU         MOSUNNY   81  57  43 S12       30.08F HX  81
MOSINEE        MOSUNNY   81  59  47 S12       30.11F HX  81
MARSHFIELD     MOSUNNY   83  54  36 SW16      30.09F HX  82
STEVENS POINT  PTSUNNY   79  56  44 S10       30.11F HX  80
WAUPACA        MOSUNNY   85  58  39 S7        30.11F HX  84
WAUTOMA        NOT AVBL
WISC RAPIDS    MOSUNNY   84  53  34 SW15      30.11F HX  82
CAMP DOUGLAS   NOT AVBL
$$

WIZ011>013-019>022-031-037>040-048>050-282000-
NORTHEAST WISCONSIN

CITY           SKY/WX    TMP DP  RH WIND       PRES   REMARKS
ANTIGO         PTSUNNY   78  64  63 S10       30.13F
SHAWANO        SUNNY     82  62  49 S8        30.11F HX  83
OCONTO         SUNNY     78  65  65 S5        30.12F
STURGEON BAY   SUNNY     73  63  68 S9        30.16F
GREEN BAY      SUNNY     82  64  54 S12       30.12F HX  83
MANITOWOC      NOT AVBL
APPLETON       MOSUNNY   81  57  44 S9        30.13F HX  81
CLINTONVILLE   MOSUNNY   81  61  50 S10       30.11F HX  81
OSHKOSH        MOSUNNY   82  60  47 S10       30.12F HX  82
$$

WIZ032>034-041-042-053>061-282000-
SOUTHWEST WISCONSIN

CITY           SKY/WX    TMP DP  RH WIND       PRES   REMARKS
LA CROSSE      MOSUNNY   84  58  40 S16G23    30.08F HX  83
SPARTA         MOSUNNY   81  54  38 S15       30.10F HX  80
VIROQUA        MOSUNNY   78  56  46 S10       30.13F
BOSCOBEL       MOSUNNY   83  56  39 S12G17    30.12S HX  82
PRAIRIE DU CHI PTSUNNY   80  53  38 S9        30.11S HX  80
PLATTEVILLE    MOSUNNY   79  53  40 S14G20    30.14F
$$

WIZ056-057-062-063-064-067-068-282000-
SOUTH CENTRAL WISCONSIN

CITY           SKY/WX    TMP DP  RH WIND       PRES   REMARKS
REEDSBURG      MOSUNNY   80  60  49 SW14G20   30.12S HX  81
BARABOO/DELLS  MOSUNNY   79  58  48 S10G17    30.12F HX  80
LONE ROCK      NOT AVBL
MINERAL POINT  MOSUNNY   81  52  36 S12G17    30.15S HX  80
MADISON        PTSUNNY   80  57  45 S15       30.13F HX  80
MIDDLETON      MOSUNNY   81  55  40 S17       30.14F HX  81
WATERTOWN      MOSUNNY  N/A N/A N/A S7        30.14F
MONROE         MOSUNNY   79  55  44 S13       30.15F
JANESVILLE     MOSUNNY   81  54  39 S7        30.15F HX  80
$$

WIZ051-052-058>065-066-070>072-282000-
SOUTHEAST WISCONSIN

CITY           SKY/WX    TMP DP  RH WIND       PRES   REMARKS
MILWAUKEE      PTSUNNY   77  58  51 SE15      30.17S
WAUKESHA       MOSUNNY   79  55  44 S6        30.17F
MILWAUKEE/TIMM MOSUNNY   81  54  39 SE12G20   30.16F HX  80
RACINE         MOSUNNY   74  55  51 SE14      30.20S
BURLINGTON     PTSUNNY   78  50  37 S10       30.17S
KENOSHA        PTSUNNY   77  58  51 SE16      30.18F
FOND DU LAC    MOSUNNY   81  62  52 S10       30.13F HX  82
SHEBOYGAN      MOSUNNY   79  61  53 S13       30.14F HX  80
WEST BEND      MOSUNNY   81  54  39 S9        30.15F HX  80
JUNEAU         MOSUNNY   78  61  54 S9        30.16S HX  80
$$

LSZ147-162-282000-
LAKE SUPERIOR

STATION/POSITION TIME  TEMP    WIND        PRES    WAVE
                       AIR SEA DIR/SP/G            HT/PER
                 (UTC) (F)     (DEG/KT/KT) (MB)    (FT/S)
W MID LAKE BUOY  1750   39 37   40/ 16/ 17   N/A     2/ 4
DEVILS ISLAND    1800   40      50/ 10/ 12   N/A
PORT WING        1800   41      30/ 16/ 18   N/A
SAXON HARBOR     1800   45     330/  5/  6   N/A
$$

LMZ867-665-643>646-282000-
LAKE MICHIGAN

STATION/POSITION TIME  TEMP    WIND        PRES    WAVE
                       AIR SEA DIR/SP/G            HT/PER
                 (UTC) (F)     (DEG/KT/KT) (MB)    (FT/S)
CHAMBERS ISLAND  1800   58     330/  3/  6   N/A
N MID LAKE BUOY  1650   40 37  130/  4/  6   N/A     1/ 3
NORTHPORT PIER   1800   49     120/ 10/ 12   N/A
SISTER BAY       1818   73     170/ 12/ 16   N/A
ALGOMA LAKESHORE 1838          170/  2/  5   N/A
KEWAUNEE LAKESHO 1800   52     150/  2/  6   N/A
SHEBOYGAN LAKESH 1800   53     170/ 13/ 14   N/A
PORT WASHINGTON  1840   63     190/  8/ 12   N/A
ATWATER BUOY     1800   56     170/ 14/ 17   N/A
MILWAUKEE LAKESH 1800          140/ 16/ 18   N/A
S MID LAKE BUOY  1750   45 39  160/  8/  8   N/A     0
KENOSHA   LAKESH 1700          170/ 11/ 13   N/A
$$

TC  - TEMPERATURE IN CELSIUS
VSB - VISIBILITY IN STATUTE MILES
WCI - WIND CHILL INDEX
HX  - HEAT INDEX




USA.gov is the U.S. government's official web portal to all federal, state and local government web resources and services.